This demonstration page uses our WeatherBlox Daily Observations layout. Learn more.

40.92945, -100.16068

Hourly Observations for December 8, 2015

Temp ( °F °C ) Dew Point ( °F °C ) Humidity (%) Winds ( mph kmh ) Pressure ( in mb ) Visibility ( mi km ) Precip ( " mm )
12:15 am 00:15 Clear 48 9 27 -3 43 43 SW 13 20 29.83 1010 10 16.09344 0 0
12:35 am 00:35 Clear 48 9 27 -3 43 43 SW 18 30 29.83 1010 10 16.09344 0 0
12:55 am 00:55 Clear 50 10 27 -3 40 40 WSW 17 28 29.8 1009 10 16.09344 0 0
1:15 am 01:15 Clear 48 9 27 -3 43 43 SW 17 28 29.8 1009 10 16.09344 0 0
1:35 am 01:35 Clear 46 8 27 -3 46 46 SW 15 24 29.77 1008 10 16.09344 0 0
1:55 am 01:55 Clear 46 8 27 -3 46 46 SW 17 28 29.77 1008 10 16.09344 0 0
2:15 am 02:15 Clear 46 8 27 -3 46 46 SSW 16 26 29.77 1008 10 16.09344 0 0
2:35 am 02:35 Clear 45 7 27 -3 49 49 SW 8 13 29.8 1009 10 16.09344 0 0
2:55 am 02:55 Clear 45 7 27 -3 49 49 W 5 7 29.8 1009 10 16.09344 0 0
3:15 am 03:15 Clear 46 8 27 -3 46 46 WNW 7 11 29.77 1008 10 16.09344 0 0
3:35 am 03:35 Partly Cloudy 45 7 28 -2 53 53 WSW 6 9 29.8 1009 10 16.09344 0 0
3:55 am 03:55 Mostly Cloudy 45 7 28 -2 53 53 WSW 10 17 29.8 1009 10 16.09344 0 0
4:15 am 04:15 Mostly Cloudy 45 7 28 -2 53 53 WSW 3 6 29.77 1008 10 16.09344 0 0
4:35 am 04:35 Mostly Cloudy 43 6 28 -2 57 57 WSW 3 6 29.77 1008 10 16.09344 0 0
4:55 am 04:55 Mostly Cloudy 41 5 28 -2 61 61 Calm 29.77 1008 10 16.09344 0 0
5:15 am 05:15 Mostly Cloudy 39 4 28 -2 65 65 Calm 29.8 1009 10 16.09344 0 0
5:35 am 05:35 Mostly Cloudy 39 4 28 -2 65 65 Calm 29.74 1007 10 16.09344 0 0
5:55 am 05:55 Partly Cloudy 37 3 30 -1 75 75 SW 5 7 29.8 1009 10 16.09344 0 0
6:15 am 06:15 Clear 39 4 28 -2 65 65 WSW 3 6 29.8 1009 10 16.09344 0 0
6:35 am 06:35 Clear 36 2 28 -2 75 75 W 7 11 29.8 1009 10 16.09344 0 0
6:55 am 06:55 Clear 36 2 27 -3 70 70 WSW 6 9 29.8 1009 10 16.09344 0 0
7:15 am 07:15 Clear 34 1 27 -3 75 75 WSW 6 9 29.83 1010 10 16.09344 0 0
7:35 am 07:35 Clear 36 2 27 -3 70 70 W 7 11 29.8 1009 10 16.09344 0 0
7:55 am 07:55 Sunny 34 1 27 -3 75 75 W 7 11 29.83 1010 10 16.09344 0 0
8:15 am 08:15 Sunny 32 0 27 -3 80 80 NW 6 9 29.83 1010 10 16.09344 0 0
8:35 am 08:35 Sunny 34 1 28 -2 81 81 WNW 8 13 29.83 1010 10 16.09344 0 0
8:55 am 08:55 Sunny 37 3 30 -1 75 75 WNW 7 11 29.83 1010 10 16.09344 0 0
9:15 am 09:15 Sunny 39 4 32 0 75 75 WNW 7 11 29.83 1010 10 16.09344 0 0
9:35 am 09:35 Sunny 43 6 32 0 66 66 WNW 10 17 29.8 1009 10 16.09344 0 0
9:55 am 09:55 Sunny 45 7 34 1 66 66 WNW 13 20 29.8 1009 10 16.09344 0 0
10:15 am 10:15 Sunny 45 7 34 1 66 66 WNW 12 19 29.8 1009 10 16.09344 0 0
10:35 am 10:35 Sunny 46 8 36 2 66 66 WNW 9 15 29.8 1009 10 16.09344 0 0
10:55 am 10:55 Sunny 50 10 36 2 58 58 WNW 15 24 29.8 1009 10 16.09344 0 0
11:15 am 11:15 Sunny 54 12 36 2 51 51 WNW 10 17 29.77 1008 10 16.09344 0 0
11:35 am 11:35 Sunny 55 13 36 2 47 47 W 12 19 29.77 1008 10 16.09344 0 0
11:55 am 11:55 Sunny 59 15 37 3 45 45 NW 15 24 29.74 1007 10 16.09344 0 0
12:15 pm 12:15 Sunny 61 16 37 3 42 42 NNW 16 26 29.74 1007 10 16.09344 0 0
12:35 pm 12:35 Sunny 63 17 37 3 39 39 NNW 13 20 29.74 1007 10 16.09344 0 0
12:55 pm 12:55 Sunny 63 17 37 3 39 39 NNW 23 37 29.74 1007 10 16.09344 0 0
1:15 pm 13:15 Sunny 63 17 37 3 39 39 NNW 20 31 29.74 1007 10 16.09344 0 0
1:35 pm 13:35 Sunny 63 17 37 3 39 39 NNW 20 31 29.74 1007 10 16.09344 0 0
1:55 pm 13:55 Sunny 63 17 37 3 39 39 NW 17 28 29.71 1006 10 16.09344 0 0
2:15 pm 14:15 Sunny 64 18 36 2 34 34 NNW 16 26 29.68 1005 10 16.09344 0 0
2:35 pm 14:35 Sunny 64 18 36 2 34 34 NNW 21 33 29.68 1005 10 16.09344 0 0
2:55 pm 14:55 Sunny 64 18 34 1 32 32 NW 18 30 29.68 1005 10 16.09344 0 0
3:15 pm 15:15 Sunny 64 18 34 1 32 32 NNW 17 28 29.68 1005 10 16.09344 0 0
3:35 pm 15:35 Sunny 64 18 34 1 32 32 NW 22 35 29.68 1005 10 16.09344 0 0
3:55 pm 15:55 Sunny 63 17 32 0 32 32 NNW 18 30 29.74 1007 10 16.09344 0 0
4:15 pm 16:15 Sunny 61 16 34 1 36 36 NW 14 22 29.77 1008 10 16.09344 0 0
4:35 pm 16:35 Sunny 61 16 34 1 36 36 NNW 12 19 29.77 1008 10 16.09344 0 0
4:55 pm 16:55 Sunny 57 14 36 2 44 44 NNW 10 17 29.8 1009 10 16.09344 0 0
5:15 pm 17:15 Clear 54 12 36 2 51 51 NNW 9 15 29.8 1009 10 16.09344 0 0
5:35 pm 17:35 Clear 48 9 34 1 58 58 NNW 9 15 29.85 1011 10 16.09344 0 0
5:55 pm 17:55 Clear 46 8 34 1 62 62 NNW 10 17 29.88 1012 10 16.09344 0 0
6:15 pm 18:15 Clear 45 7 32 0 61 61 NW 8 13 29.91 1013 10 16.09344 0 0
6:35 pm 18:35 Clear 39 4 32 0 75 75 NNW 7 11 29.91 1013 10 16.09344 0 0
6:55 pm 18:55 Clear 39 4 32 0 75 75 W 7 11 29.94 1014 10 16.09344 0 0
7:15 pm 19:15 Clear 37 3 32 0 81 81 NW 6 9 29.94 1014 10 16.09344 0 0
7:35 pm 19:35 Clear 36 2 30 -1 81 81 W 8 13 29.97 1015 10 16.09344 0 0
7:55 pm 19:55 Clear 37 3 32 0 81 81 W 8 13 29.94 1014 10 16.09344 0 0
8:15 pm 20:15 Clear 37 3 32 0 81 81 W 6 9 29.94 1014 10 16.09344 0 0
8:35 pm 20:35 Clear 36 2 30 -1 81 81 W 8 13 29.97 1015 10 16.09344 0 0
8:55 pm 20:55 Clear 36 2 30 -1 81 81 W 10 17 29.97 1015 10 16.09344 0 0
9:15 pm 21:15 Clear 37 3 32 0 81 81 W 9 15 29.94 1014 10 16.09344 0 0
9:35 pm 21:35 Clear 36 2 32 0 87 87 W 8 13 29.97 1015 10 16.09344 0 0
9:55 pm 21:55 Clear 39 4 32 0 75 75 W 9 15 29.97 1015 10 16.09344 0 0
10:15 pm 22:15 Clear 37 3 32 0 81 81 WNW 9 15 29.94 1014 10 16.09344 0 0
10:35 pm 22:35 Clear 36 2 30 -1 81 81 WNW 6 9 30 1016 10 16.09344 0 0
10:55 pm 22:55 Clear 34 1 30 -1 87 87 NW 5 7 30 1016 10 16.09344 0 0
11:15 pm 23:15 Clear 32 0 30 -1 93 93 NW 5 7 30 1016 10 16.09344 0 0
11:35 pm 23:35 Clear 32 0 28 -2 87 87 NW 6 9 30 1016 10 16.09344 0 0
11:55 pm 23:55 Clear 32 0 30 -1 93 93 NW 6 9 30 1016 10 16.09344 0 0

Powered by AerisWeather